Terminal Aerodrome Forecast
Issued by NWS Kansas City/Pleasant Hill, MO

Home | Current Version | Previous Version | Text Only | Print | Product List | Glossary On
Versions: 1 2 3 4 5 6 7 8 9 10 11 12 13 14 15 16 17 18
000
FTUS43 KEAX 251100
TAFMCI
TAF
KMCI 251120Z 2512/2612 14013KT P6SM VCSH SCT020 BKN050
      TEMPO 2512/2516 6SM -TSRA BKN025CB
     FM251600 36012KT P6SM OVC015
     FM260300 03010KT P6SM BKN010=

USA.gov is the U.S. government's official web portal to all federal, state and local government web resources and services.